TimePST,TemperatureF,Dew PointF,Humidity,Sea Level PressureIn,VisibilityMPH,Wind Direction,Wind SpeedMPH,Gust SpeedMPH,PrecipitationIn,Events,Conditions,WindDirDegrees,DateUTC
12:15 AM,42.8,41.0,93,30.23,10.0,SE,8.1,-,N/A,,Clear,130,2014-01-21 08:15:00
12:35 AM,42.8,42.8,100,30.23,10.0,SSE,5.8,-,N/A,,Clear,150,2014-01-21 08:35:00
12:55 AM,42.8,41.0,93,30.23,10.0,SE,3.5,-,N/A,,Clear,130,2014-01-21 08:55:00
1:15 AM,42.8,42.8,100,30.23,10.0,SE,8.1,-,N/A,,Clear,130,2014-01-21 09:15:00
1:35 AM,44.6,42.8,93,30.25,10.0,WSW,3.5,-,N/A,,Clear,250,2014-01-21 09:35:00
1:55 AM,42.8,39.2,87,30.25,10.0,ESE,4.6,-,N/A,,Clear,110,2014-01-21 09:55:00
2:15 AM,39.2,39.2,100,30.25,10.0,ESE,6.9,-,N/A,,Clear,110,2014-01-21 10:15:00
2:35 AM,41.0,41.0,100,30.25,10.0,SE,8.1,-,N/A,,Clear,130,2014-01-21 10:35:00
2:55 AM,39.2,39.2,100,30.27,10.0,Calm,Calm,-,N/A,,Clear,0,2014-01-21 10:55:00
3:15 AM,41.0,39.2,93,30.27,10.0,Calm,Calm,-,N/A,,Clear,0,2014-01-21 11:15:00
3:35 AM,39.2,37.4,93,30.26,10.0,SE,4.6,-,N/A,,Clear,130,2014-01-21 11:35:00
3:55 AM,39.2,39.2,100,30.26,10.0,Calm,Calm,-,N/A,,Clear,0,2014-01-21 11:55:00
4:15 AM,37.4,37.4,100,30.27,10.0,South,3.5,-,N/A,,Clear,180,2014-01-21 12:15:00
4:35 AM,39.2,39.2,100,30.26,10.0,Calm,Calm,-,N/A,,Clear,0,2014-01-21 12:35:00
4:55 AM,39.2,39.2,100,30.27,8.0,Calm,Calm,-,N/A,,Scattered Clouds,0,2014-01-21 12:55:00
5:15 AM,39.2,39.2,100,30.27,10.0,NNE,3.5,-,N/A,,Overcast,30,2014-01-21 13:15:00
5:35 AM,41.0,39.2,93,30.28,5.0,ENE,5.8,-,N/A,,Overcast,70,2014-01-21 13:35:00
5:55 AM,39.2,39.2,100,30.28,4.0,SSE,3.5,-,N/A,,Overcast,160,2014-01-21 13:55:00
6:15 AM,41.0,39.2,93,30.28,3.0,SE,4.6,-,N/A,,Overcast,140,2014-01-21 14:15:00
6:35 AM,39.2,39.2,100,30.29,1.0,SSE,3.5,-,N/A,,Overcast,150,2014-01-21 14:35:00
6:55 AM,39.2,39.2,100,30.30,0.5,SSW,3.5,-,N/A,,Overcast,210,2014-01-21 14:55:00
7:15 AM,39.2,39.2,100,30.30,0.5,South,3.5,-,N/A,,Overcast,190,2014-01-21 15:15:00
7:35 AM,39.2,39.2,100,30.30,0.5,SE,3.5,-,N/A,,Overcast,130,2014-01-21 15:35:00
7:55 AM,39.2,39.2,100,30.30,0.2,SSE,3.5,-,N/A,,Overcast,160,2014-01-21 15:55:00
8:15 AM,41.0,41.0,100,30.31,0.5,Calm,Calm,-,N/A,,Overcast,0,2014-01-21 16:15:00
8:35 AM,41.0,41.0,100,30.32,0.8,WSW,3.5,-,N/A,,Overcast,240,2014-01-21 16:35:00
8:55 AM,42.8,42.8,100,30.33,2.5,SE,3.5,-,N/A,,Overcast,140,2014-01-21 16:55:00
9:15 AM,41.0,41.0,100,30.33,1.2,ESE,8.1,-,N/A,,Overcast,120,2014-01-21 17:15:00
9:35 AM,42.8,42.8,100,30.35,1.2,SSE,5.8,-,N/A,,Overcast,150,2014-01-21 17:35:00
9:55 AM,42.8,42.8,100,30.36,1.8,SSE,4.6,-,N/A,,Overcast,150,2014-01-21 17:55:00
10:15 AM,42.8,42.8,100,30.36,1.8,SE,6.9,-,N/A,,Overcast,130,2014-01-21 18:15:00
10:35 AM,42.8,42.8,100,30.36,1.8,SE,9.2,-,N/A,,Overcast,130,2014-01-21 18:35:00
10:55 AM,42.8,42.8,100,30.37,7.0,SSE,5.8,-,N/A,,Overcast,160,2014-01-21 18:55:00
11:15 AM,44.6,44.6,100,30.36,10.0,SSE,5.8,-,N/A,,Overcast,150,2014-01-21 19:15:00
11:35 AM,44.6,44.6,100,30.37,10.0,SSE,5.8,-,N/A,,Overcast,150,2014-01-21 19:35:00
11:55 AM,46.4,46.4,100,30.35,7.0,SE,8.1,-,N/A,,Overcast,140,2014-01-21 19:55:00
12:15 PM,46.4,44.6,93,30.35,10.0,SE,8.1,-,N/A,,Overcast,140,2014-01-21 20:15:00
12:35 PM,46.4,44.6,93,30.33,10.0,SE,6.9,-,N/A,,Overcast,130,2014-01-21 20:35:00
12:55 PM,46.4,46.4,100,30.32,10.0,SE,8.1,-,N/A,,Overcast,140,2014-01-21 20:55:00
1:15 PM,46.4,44.6,93,30.31,10.0,South,5.8,-,N/A,,Overcast,170,2014-01-21 21:15:00
1:35 PM,46.4,44.6,93,30.31,10.0,SSE,3.5,-,N/A,,Overcast,150,2014-01-21 21:35:00
1:55 PM,48.2,46.4,93,30.29,10.0,SSW,3.5,-,N/A,,Mostly Cloudy,210,2014-01-21 21:55:00
2:15 PM,48.2,46.4,93,30.29,10.0,West,6.9,-,N/A,,Partly Cloudy,280,2014-01-21 22:15:00
2:35 PM,48.2,46.4,93,30.30,10.0,West,10.4,-,N/A,,Clear,280,2014-01-21 22:35:00
2:55 PM,48.2,46.4,93,30.32,10.0,West,12.7,-,N/A,,Scattered Clouds,280,2014-01-21 22:55:00
3:15 PM,46.4,44.6,93,30.31,10.0,West,9.2,-,N/A,,Overcast,270,2014-01-21 23:15:00
3:35 PM,48.2,44.6,87,30.32,10.0,West,8.1,-,N/A,,Overcast,260,2014-01-21 23:35:00
3:55 PM,48.2,44.6,87,30.33,10.0,West,8.1,-,N/A,,Overcast,260,2014-01-21 23:55:00
4:15 PM,48.2,44.6,87,30.33,10.0,WSW,4.6,-,N/A,,Overcast,250,2014-01-22 00:15:00
4:35 PM,48.2,44.6,87,30.34,10.0,Calm,Calm,-,N/A,,Overcast,0,2014-01-22 00:35:00
4:55 PM,48.2,44.6,87,30.35,10.0,WNW,4.6,-,N/A,,Overcast,300,2014-01-22 00:55:00
5:15 PM,48.2,44.6,87,30.36,10.0,NW,3.5,-,N/A,,Overcast,320,2014-01-22 01:15:00
5:35 PM,48.2,44.6,87,30.37,10.0,Calm,Calm,-,N/A,,Overcast,0,2014-01-22 01:35:00
5:55 PM,48.2,44.6,87,30.37,10.0,Calm,Calm,-,N/A,,Overcast,0,2014-01-22 01:55:00
6:15 PM,44.6,44.6,100,30.36,10.0,ESE,4.6,-,N/A,,Partly Cloudy,120,2014-01-22 02:15:00
6:35 PM,44.6,44.6,100,30.37,10.0,ESE,3.5,-,N/A,,Partly Cloudy,110,2014-01-22 02:35:00
6:55 PM,44.6,44.6,100,30.37,10.0,SSE,5.8,-,N/A,,Mostly Cloudy,160,2014-01-22 02:55:00
7:15 PM,46.4,46.4,100,30.36,10.0,ESE,10.4,-,N/A,,Overcast,120,2014-01-22 03:15:00
7:35 PM,44.6,44.6,100,30.36,10.0,SE,9.2,-,N/A,,Overcast,130,2014-01-22 03:35:00
7:55 PM,44.6,44.6,100,30.36,10.0,ESE,5.8,-,N/A,,Mostly Cloudy,120,2014-01-22 03:55:00
8:15 PM,44.6,42.8,93,30.36,10.0,SE,8.1,-,N/A,,Overcast,140,2014-01-22 04:15:00
8:35 PM,46.4,44.6,93,30.36,10.0,ESE,5.8,-,N/A,,Overcast,120,2014-01-22 04:35:00
8:55 PM,46.4,44.6,93,30.36,10.0,SE,6.9,-,N/A,,Overcast,130,2014-01-22 04:55:00
9:15 PM,46.4,44.6,93,30.35,10.0,SSE,8.1,-,N/A,,Overcast,150,2014-01-22 05:15:00
9:35 PM,46.4,44.6,93,30.35,10.0,SE,9.2,-,N/A,,Overcast,140,2014-01-22 05:35:00
9:55 PM,44.6,44.6,100,30.35,10.0,SSE,9.2,-,N/A,,Overcast,160,2014-01-22 05:55:00
10:15 PM,44.6,42.8,93,30.36,10.0,SE,4.6,-,N/A,,Overcast,140,2014-01-22 06:15:00
10:35 PM,42.8,41.0,93,30.36,10.0,SSE,9.2,-,N/A,,Overcast,160,2014-01-22 06:35:00
10:55 PM,42.8,42.8,100,30.37,10.0,SE,8.1,-,N/A,,Mostly Cloudy,140,2014-01-22 06:55:00
11:15 PM,44.6,42.8,93,30.37,10.0,SSE,10.4,-,N/A,,Overcast,150,2014-01-22 07:15:00
11:35 PM,44.6,42.8,93,30.37,10.0,SE,8.1,-,N/A,,Overcast,140,2014-01-22 07:35:00
11:55 PM,42.8,41.0,93,30.37,10.0,ESE,5.8,-,N/A,,Overcast,110,2014-01-22 07:55:00